763  
ASUS41 KALY 230910  
RWRALY  
 
NEW YORK STATE HOURLY WEATHER ROUNDUP  
NATIONAL WEATHER SERVICE ALBANY NY  
500 AM EDT FRI APR 23 2021  
 
NOTE: "FAIR" INDICATES FEW OR NO CLOUDS BELOW 12,000 FEET WITH NO  
SIGNIFICANT WEATHER AND/OR NO S TO VISIBILITY
.  
 
NYZ032-033-038>043-046>054-057>066-NYZ062>081-082-084-231000-  
EAST  
 
 
CITY SKY/WX TMP DP RH WIND PRES REMARKS
 
ALBANY PTCLDY 33 23 66 W14 29.90R WCI 23  
GLENS FALLS PTCLDY 30 21 69 S7 29.83 WCI 23  
POUGHKEEPSIE CLEAR 36 21 54 SW8 29.95R WCI 30  
NEWBURGH CLEAR 34 21 60 W12G23 29.96R WCI 25  
MONTGOMERY CLEAR 32 20 61 W7 29.97R WCI 26  
WHITE PLAINS CLEAR 36 20 52 W13G24 29.96R WCI 27  
ISLIP CLEAR 39 23 52 W15G24 29.97R WCI 31  
NEW YORK CITY PTCLDY 41 21 44 W16G30 30.00R  
CENTRAL PARK CLEAR 40 19 43 NW6 30.03R  

 
 
NYZ005>009-017-018-044>046-055-056-231000-  
CENTRAL  
 
 
CITY SKY/WX TMP DP RH WIND PRES REMARKS
 
FULTON CLEAR 31 21 66 W8 29.95R WCI 23  
SYRACUSE CLEAR 34 21 59 W12 29.95S WCI 25  
ROME CLEAR 30 22 72 N3 29.95R  
ELMIRA FLURRIES 31 22 69 W7 29.99S WCI 24  
BINGHAMTON CLEAR 27 20 75 W8 29.93S WCI 19  
MONTICELLO CLEAR 28 20 71 W8 29.93R WCI 20  

 
 
NYZ026>034-041>043-087-231000-  
NORTH  
 
 
CITY SKY/WX TMP DP RH WIND PRES REMARKS
 
WATERTOWN CLOUDY 38 25 59 W15G22 29.90S WCI 29  
FORT DRUM NOT AVBL  
OGDENSBURG CLOUDY 36 25 64 W9G15 29.82S WCI 29  
MASSENA CLOUDY 36 21 54 W12G22 29.82R WCI 28  
SARANAC LAKE CLOUDY 31 21 66 W8G20 29.75 WCI 23  
PLATTSBURGH CLEAR 38 21 50 VRB3 29.74S  

 
 
NYZ001>004-010>016-019>021-085-231000-  
WEST  
 
 
CITY SKY/WX TMP DP RH WIND PRES REMARKS
 
NIAGARA FALLS CLEAR 32 27 81 SW8 29.98S WCI 25  
BUFFALO CLEAR 32 26 78 S8 29.99S WCI 25  
DUNKIRK CLEAR 34 27 75 S8 30.02R WCI 27  
JAMESTOWN CLEAR 28 25 88 S15G21 30.00S WCI 16  
WELLSVILLE CLEAR 29 23 78 W12 29.97S WCI 19  
ROCHESTER CLEAR 30 22 72 SW6 29.98S WCI 24  
PENN YAN CLEAR 32 21 64 S10 29.97F WCI 24  

 
 
KEY  
WCI = WIND CHILL INDEX  
VSB = VISIBILITY  
HX = HEAT INDEX  

 
 
 
CLICK HERE TO GO TO PREVIOUS BULLETINS.

The Nexlab NY Page
The Nexlab VT Page
The Nexlab MA Page
The Nexlab CT Page Main Text Page